Regional Weather Roundup
Issued by NWS

Home | Current Version | Previous Version | Text Only | Print | Product List | Glossary On
Versions: 1 2 3 4 5 6 7 8 9 10 11 12 13 14 15 16 17 18 19 20 21 22 23 24 25 26 27 28 29 30 31 32 33 34 35 36 37 38 39 40 41 42 43 44 45 46 47 48 49 50
000
ASUS43 KMKX 162310
RWRWI

WISCONSIN REGIONAL WEATHER ROUNDUP
NATIONAL WEATHER SERVICE MILWAUKEE/SULLIVAN WI
500 PM CST SAT DEC 16 2017

NOTE: "FAIR" INDICATES FEW OR NO CLOUDS BELOW 12,000 FEET WITH NO
SIGNIFICANT WEATHER AND/OR OBSTRUCTIONS TO VISIBILITY.

WIZ001-002-006>008-014>016-023>028-170000-
NORTHWEST WISCONSIN

CITY           SKY/WX    TMP DP  RH WIND       PRES   REMARKS
SUPERIOR ARPT  CLOUDY    22  12  64 E8        30.07R WCI  13
ASHLAND        CLOUDY    21  12  68 E3        30.07R
HAYWARD        CLOUDY    20  12  71 SE7       30.02R WCI  11
SIREN          CLOUDY    23  16  73 CALM      30.02S
CUMBERLAND     CLOUDY    21  14  73 E5        30.01R WCI  15
RICE LAKE      CLOUDY    22  16  75 CALM      30.04R
CHETEK         CLOUDY    22  16  76 E3        30.03R
LADYSMITH      CLOUDY    22  14  70 E6        30.05R WCI  15
EAU CLAIRE     CLOUDY    23  16  74 NE7       30.03R WCI  15
MENOMONIE      PTCLDY    25  17  74 NE6       30.03R WCI  18
NEW RICHMOND   CLOUDY    25  17  72 E6        30.02R WCI  18
OSCEOLA        CLOUDY    26  19  74 E5        30.06R WCI  20
$$

WIZ003>005-009-010-017-018-170000-
NORTH CENTRAL WISCONSIN

CITY           SKY/WX    TMP DP  RH WIND       PRES   REMARKS
MANITOWISH WTR CLOUDY    18  10  70 SE6       30.02R WCI  10
ARBOR VITAE    CLOUDY    19  10  68 SE5       30.02R WCI  12
WOODRUFF       CLOUDY    19  10  68 SE5       30.02R WCI  12
RHINELANDER    CLOUDY    18  10  71 E6        30.03R WCI  10
EAGLE RIVER    CLOUDY    19   9  65 E3        30.02R
LAND O LAKES   CLOUDY    19  11  71 SE3       30.04R
PHILLIPS       CLOUDY    18  10  73 E5        30.02R WCI  11
TOMAHAWK       CLOUDY    18  12  78 CALM      30.04R
MEDFORD        CLOUDY    20  15  78 E7        30.02R WCI  11
MERRILL        CLOUDY    21  14  73 CALM      30.04R
$$

WIZ029-030-035-036-043>047-170000-
CENTRAL WISCONSIN

CITY           SKY/WX    TMP DP  RH WIND       PRES   REMARKS
WAUSAU         CLOUDY    21  15  78 E6        30.03R WCI  13
MOSINEE        CLOUDY    21  18  86 E9        30.03R WCI  11
MARSHFIELD     CLOUDY    22  18  85 E9        30.02R WCI  12
STEVENS POINT  CLOUDY    21  16  79 E5        30.05R WCI  15
WAUPACA        CLOUDY    27  19  71 NE5       30.05R WCI  21
WAUTOMA        CLOUDY    25  19  78 NE6       30.03R WCI  18
WISC RAPIDS    CLOUDY    23  16  74 E6        30.05R WCI  16
CAMP DOUGLAS   CLOUDY    27  25  92 E6        30.01R WCI  20
$$

WIZ011>013-019>022-031-037>040-048>050-170000-
NORTHEAST WISCONSIN

CITY           SKY/WX    TMP DP  RH WIND       PRES   REMARKS
ANTIGO         CLOUDY    19  16  88 E9        30.03R WCI   8
SHAWANO        CLOUDY    24  19  79 NE7       30.07R WCI  16
OCONTO         CLOUDY    24  20  85 N7        30.08R WCI  16
STURGEON BAY   CLOUDY    26  22  84 NE10      30.08R WCI  16
GREEN BAY      MOCLDY    23  17  78 N8        30.06R WCI  14
MANITOWOC      CLOUDY    27  21  78 NE3       30.06R
APPLETON       CLOUDY    27  18  69 NE7       30.02R WCI  19
CLINTONVILLE   CLOUDY    23  18  80 NE9       30.06R WCI  13
OSHKOSH        CLOUDY    28  22  78 E7        30.03R WCI  21
$$

WIZ032>034-041-042-053>061-170000-
SOUTHWEST WISCONSIN

CITY           SKY/WX    TMP DP  RH WIND       PRES   REMARKS
LA CROSSE      PTCLDY    29  21  72 NE5       30.01R WCI  24
SPARTA         CLOUDY    27  24  87 E6        30.02R WCI  21
VIROQUA        PTCLDY    26  25  94 CALM      29.96R
BOSCOBEL       CLEAR     34  25  69 VRB3      29.99R
PRAIRIE DU CHI CLEAR     37  26  62 CALM      29.97R
PLATTEVILLE    CLEAR     38  26  61 NE6       29.95R WCI  33
$$

WIZ056-057-062-063-064-067-068-170000-
SOUTH CENTRAL WISCONSIN

CITY           SKY/WX    TMP DP  RH WIND       PRES   REMARKS
REEDSBURG      CLOUDY    28  26  96 NE5       29.99R WCI  22
BARABOO/DELLS  CLOUDY    27  25  91 NE7       29.99R WCI  20
LONE ROCK      MOCLDY    32  27  81 NE5       29.99R WCI  27
MINERAL POINT  CLEAR     36  30  80 NE6       29.95R WCI  31
MADISON        CLOUDY    32  29  88 E10       30.00R WCI  24
MIDDLETON      CLOUDY    34  31  88 NE8       29.99R WCI  27
WATERTOWN      CLOUDY    32  32 100 E8        29.99R WCI  24
MONROE         CLEAR     37  27  65 E3        29.95R
JANESVILLE     CLEAR     34  23  64 SE8       29.95R WCI  27
$$

WIZ051-052-058>065-066-070>072-170000-
SOUTHEAST WISCONSIN

CITY           SKY/WX    TMP DP  RH WIND       PRES   REMARKS
MILWAUKEE      CLOUDY    37  33  85 NE13      29.99R WCI  29
WAUKESHA       CLOUDY    30  28  93 NE9       29.99R WCI  22
MILWAUKEE/TIMM CLOUDY    34  28  80 NE7       30.01R WCI  28
RACINE         CLEAR     33  27  78 CALM      30.01R
BURLINGTON     CLEAR     47  47  99 NE5       29.99R
KENOSHA        CLEAR     33  25  72 NE6       29.99R WCI  28
FOND DU LAC    CLOUDY    30  21  69 E7        30.03R WCI  23
SHEBOYGAN      CLOUDY    29  23  78 NE9       30.02R WCI  20
WEST BEND      CLOUDY    30  28  93 NE9       30.00S WCI  22
JUNEAU         CLOUDY    29  26  88 NE8       30.01R WCI  21
$$

LSZ147-162-170000-
LAKE SUPERIOR

STATION/POSITION TIME  TEMP    WIND        PRES    WAVE
                       AIR SEA DIR/SP/G            HT/PER
                 (UTC) (F)     (DEG/KT/KT) (MB)    (FT/S)
DEVILS ISLAND    2300   25     100/ 12/ 16 1019.4R
SAXON HARBOR     2240   23                 1017.6R
$$

LMZ867-665-643>646-170000-
LAKE MICHIGAN

STATION/POSITION TIME  TEMP    WIND        PRES    WAVE
                       AIR SEA DIR/SP/G            HT/PER
                 (UTC) (F)     (DEG/KT/KT) (MB)    (FT/S)
NORTHPORT PIER   2240   25      90/ 11/ 15 1019.3R
KEWAUNEE LAKESHO 2242   29      60/  7/ 12 1016.9R
SHEBOYGAN LAKESH 2300   32      70/ 13/ 14 1017.6R
PORT WASHINGTON  2230   34      50/ 10/ 12 1017.3R
MILWAUKEE LAKESH 2250   35      60/ 14/ 15   N/A
KENOSHA   LAKESH 2300   37      50/  5/  6 1015.9
$$

TC  - TEMPERATURE IN CELSIUS
VSB - VISIBILITY IN STATUTE MILES
WCI - WIND CHILL INDEX
HX  - HEAT INDEX





USA.gov is the U.S. government's official web portal to all federal, state and local government web resources and services.